Regional Weather Roundup
Issued by NWS

Home | Current Version | Previous Version | Graphics & Text | Print | Product List | Glossary On
Versions: 1 2 3 4 5 6 7 8 9 10 11 12 13 14 15 16 17 18 19 20 21 22 23 24 25 26 27 28 29 30 31 32 33 34 35 36 37 38 39 40 41 42 43 44 45 46 47 48 49 50
000
ASUS43 KDMX 181401
RWRIA

WEATHER ROUNDUP FOR IOWA
NATIONAL WEATHER SERVICE DES MOINES IA
900 AM CDT FRI AUG 18 2017

NOTE: "FAIR" INDICATES FEW OR NO CLOUDS BELOW 12,000 FEET WITH NO
SIGNIFICANT WEATHER AND/OR OBSTRUCTIONS TO VISIBILITY.

* - THESE STATIONS ARE NOT NWS STATIONS...THUS NOT UNDER NWS
QUALITY CONTROL.  THEY ALSO DO NOT REPORT WEATHER SUCH
AS PRECIPITATION OR FOG.

IAZ001>003-012>014-020>022-031>034-043>046-181500-
   NORTHWEST IOWA

CITY           SKY/WX    TMP DP  RH WIND       PRES   REMARKS
SHELDON *      CLOUDY    63  59  88 CALM      29.93R
SIOUX CITY     SUNNY     68  64  87 N8        29.93R
STORM LAKE *   CLOUDY    64  61  88 NE9       29.94R
$$

IAZ055>058-069>071-079>083-090>094-181500-
   SOUTHWEST IOWA

CITY           SKY/WX    TMP DP  RH WIND       PRES   REMARKS
CLARINDA *     CLOUDY    66  64  94 S6        29.94R
LAMONI         CLOUDY    66  61  84 SE6       29.92F
RED OAK *      MOSUNNY   68  63  83 CALM      29.93R
SHENANDOAH *   MOSUNNY   70  63  78 S6        29.91S
$$

IAZ047>049-059>061-072>074-084-181500-
   CENTRAL IOWA

CITY           SKY/WX    TMP DP  RH WIND       PRES   REMARKS
ANKENY *       MOSUNNY   64  63  94 CALM      29.92S
GRINNELL*      MOSUNNY   66  63  91 CALM      29.94F
KNOXVILLE *    CLOUDY    66  61  82 S5        29.92S
MARSHALLTOWN   MOSUNNY   65  64  97 CALM      29.92R
NEWTON *       CLOUDY    66  64  94 CALM      29.93S
PELLA *        MOSUNNY   67  63  86 CALM      29.94F
PERRY *          N/A     63  62  97 CALM      29.92R
$$

IAZ004>006-015-016-023>025-035-036-181500-
   NORTH CENTRAL IOWA

CITY           SKY/WX    TMP DP  RH WIND       PRES   REMARKS
IOWA FALLS *     N/A     65  63  93 CALM      29.92F
$$

IAZ007>011-017>019-026>030-037>042-050>054-066-181500-
   NORTHEAST IOWA

CITY           SKY/WX    TMP DP  RH WIND       PRES   REMARKS
CHARLES CITY * PTSUNNY   64  64 100 CALM      29.93R
DECORAH *      SUNNY     64  59  82 VRB5      29.90R
$$

IAZ064-065-067-068-078-181500-
   EAST CENTRAL IOWA

CITY           SKY/WX    TMP DP  RH WIND       PRES   REMARKS
IOWA CITY      CLOUDY    70  62  76 N6        29.93S
QUAD CITIES    SUNNY     73  62  68 NW9       29.91F
$$

IAZ062-063-075>077-085>089-095>099-181500-
   SOUTHEAST IOWA

CITY           SKY/WX    TMP DP  RH WIND       PRES   REMARKS
BURLINGTON     SUNNY     71  65  81 CALM      29.94S
OSKALOOSA *      N/A     67  64  91 CALM      29.95R
$$

ABBREVIATIONS USED IN REMARKS
   TC - TEMPERATURES IN CELSIUS
  WCI - WIND CHILL INDEX
   HX - HEAT INDEX
  VSB - VISIBILITY
$$





USA.gov is the U.S. government's official web portal to all federal, state and local government web resources and services.